ARIANE 40 R/B

Last updated on Thu Nov 21 2024 00:02:12 GMT+0000 (Coordinated Universal Time)

1 22830U 93061H 24325.41630991 .00000483 00000+0 19457-3 0 9996 2 22830 98.5547 31.0903 0009823 243.9613 116.0560 14.32411081626199
UTC large
Height (km)
Speed (km/s)
/
Latitude / Longitude
Inclination (degrees)
Orbital Period (minutes)
Azimuth
Elevation
Range (km)
Doppler Factor

Next 0 passes for location: London (51.5072 / 0.1276)

Sorry there are no passes over London.